www.pogodaiklimat.ru

Архив погоды в Аэропорту Пиарко (Тринидад и Тобаго)

Время
(UTC), дата
06 16.05
09 16.05
12 16.05
15 16.05
18 16.05
21 16.05
00 17.05
03 17.05
06 17.05
09 17.05
12 17.05
15 17.05
18 17.05
21 17.05
00 18.05
03 18.05
06 18.05
09 18.05
12 18.05
15 18.05
18 18.05
21 18.05
00 19.05
03 19.05
06 19.05
09 19.05
12 19.05
15 19.05
18 19.05
21 19.05
00 20.05
03 20.05
06 20.05
09 20.05
12 20.05
15 20.05
18 20.05
21 20.05
00 21.05
03 21.05
06 21.05
09 21.05
12 21.05
15 21.05
18 21.05
21 21.05
00 22.05
03 22.05
06 22.05
12 22.05
15 22.05
18 22.05
21 22.05
00 23.05
03 23.05
Ветер
(напр.,м/с)
Видим. Явления Облачность Т
(С)
Тd
(С)
f
(%)
Тe
(С)
Тes
(С)
Комфортность P
(гПа)
Po
(гПа)
Тmin
(С)
Tmax
(С)
R
(мм)
R24
(мм)
S
(см)
штиль 0 12 км пыль {ливн. дождь} 4/3 480 м
[Cu Sc Ac As]
+26.4 +24.7 90 +37 +37 очень душно 1011.7 1009.2 +25.4 +34.8
штиль 0 12 км пыль 4/3 480 м
[Cu Sc Ac As Ci sp]
+25.8 +24.4 92 +36 +36 очень душно 1011.8 1009.3
В 3 10 км слаб. ливневой дождь 8/4 480 м
[Cu Sc Ac As Ci sp]
+28.5 +25.6 84 +42 +44 очень душно 1013.6 1011.1 +25.2 +34.8 0.0 0.0
ЮВ 5 13 км пыль {ливн. дождь} 5/5 750 м
[Cu Sc Ac lent Ci sp]
+33.1 +24.2 60 +45 +51 очень душно 1012.9 1010.4
В 9 5000 м осадки на расстоянии {ливн. дождь} 8/5 600 м
[Cu Sc Ac As Ci sp]
+32.5 +25.4 66 +47 +47 очень душно 1011.4 1008.9 +25.2 +34.9 0.0
В 7 500 м осадки на расстоянии {ливн. дождь} 9/3 540 м
[Cu Sc Ac As Ci sp]
+31.1 +25.0 70 +45 +45 очень душно 1010.3 1007.8
В 2 10 км в посл. час ливневой дождь 8/3 540 м
[Cu Sc Ac As Ci sp]
+27.5 +24.8 85 +39 +39 очень душно 1012.4 1009.9 +25.2 +35.6 0.0
штиль 0 10 км осадки на расстоянии 9/6 480 м
[Cu Sc Ac As Ci sp]
+26.9 +25.2 90 +39 +39 очень душно 1013.6 1011.1
штиль 0 10 км зарница {ливн. дождь} 9/8 360 м
[Cb cap Ac As Ci sp]
+26.8 +25.1 90 +39 +39 очень душно 1012.3 1009.8 +25.2 +35.6
штиль 0 10 км пыль 8/3 480 м
[Cu Sc Ac trans Ci sp]
+26.6 +24.8 90 +38 +38 очень душно 1012.2 1009.7
ЮВ 5 8000 м осадки на расстоянии 6/5 540 м
[Sc diur, vesp Ac lent Ci sp]
+29.9 +25.2 76 1013.6 1011.1 +26.6 +35.6 0.0
ЮВ 8 8000 м осадки на расстоянии {ливн. дождь} 8/8 540 м
[Cu Sc Ac As Ci sp]
+32.0 +25.7 69 +47 +48 очень душно 1014.1 1011.6
В 8 10 км осадки на расстоянии {ливн. дождь, дождь} 8/6 600 м
[Cu Sc Ac As Ci sp]
+32.1 +25.8 69 +47 +48 очень душно 1011.8 1009.3 +26.3 +33.4 2
В 6 8000 м осадки на расстоянии {ливн. дождь} 6/3 540 м
[Cu Sc Ac As Ci sp]
+30.0 +25.2 76 +44 +44 очень душно 1011.5 1009.0
В 3 8000 м слаб. ливневой дождь 9/5 480 м
[Cu Sc Ac As Ci sp]
+27.9 +25.9 89 +42 +42 очень душно 1013.4 1010.9 +26.3 +33.4 0.0
В 2 8000 м осадки на расстоянии {ливн. дождь} 9/4 480 м
[Cu Sc Ac As Ci sp]
+27.0 +25.1 89 +39 +39 очень душно 1014.2 1011.7
В 2 10 км пыль {ливн. дождь} 9/1 480 м
[Cu hum Ac As Ci sp]
+26.5 +25.4 94 +39 +39 очень душно 1012.8 1010.3 +26.3 +33.4
В 3 7000 м пыль 9/1 480 м
[Cu Sc Ac As Ci sp]
+26.3 +24.7 91 +37 +37 очень душно 1012.9 1010.4
В 4 6000 м пыль 9/1 480 м
[Cu Sc Ac lent Cs]
+28.4 +25.6 85 +42 +44 очень душно 1014.1 1011.6 +26.1 +33.4 2 1.7
В 7 4000 м осадки на расстоянии {ливн. дождь} 9/6 420 м
[Sc diur, vesp Ac As Cs]
+29.5 +26.2 82 +45 +46 очень душно 1015.0 1012.5
штиль 0 4000 м гроза, ливневой дождь 10/8 240 м
[Cb cap Ac lent Cs]
+25.9 +25.5 98 +38 +40 очень душно 1013.8 1011.3 +25.9 +31.5 13
В 3 10 км пыль {гроза, ливн. дождь} 10/1 240 м
[Cu Sc Ac As Cs]
+27.2 +25.8 92 +40 +41 очень душно 1012.8 1010.3
штиль 0 10 км пыль {гроза} 9/3 480 м
[Cu med, cong Cs]
+26.8 +25.8 94 +40 +40 очень душно 1014.1 1011.6 +25.6 +31.5 2
В 2 10 км пыль 9/1 480 м
[Cu Sc Cs]
+27.0 +25.8 93 +40 +40 очень душно 1014.9 1012.4
штиль 0 10 км пыль 9/1 480 м
[Cu hum Ci sp]
+26.9 +25.3 91 +39 +39 очень душно 1013.4 1010.9 +25.6 +31.5
штиль 0 10 км пыль {ливн. дождь} 9/1 480 м
[Cu hum Cs]
+26.1 +25.1 94 +37 +37 очень душно 1013.7 1011.2
ЮВ 2 10 км осадки на расстоянии {ливн. дождь} 9/3 540 м
[Cu Sc Ac As Cs]
+27.4 +25.5 89 +40 +42 очень душно 1014.9 1012.4 +25.9 +31.5 0.1 14.9
ЮВ 6 9000 м пыль 9/3 600 м
[Cu Sc Ac As Cs]
+31.3 +25.7 72 +46 +50 очень душно 1015.1 1012.6
ЮВ 4 10 км пыль 9/5 720 м
[Cu med, cong Ac As Cs]
+31.9 +25.6 69 +46 +50 очень душно 1013.2 1010.7 +25.9 +32.3
В 4 10 км пыль 9/3 480 м
[Cu Sc Ac As Cs]
+29.4 +25.4 79 +43 +44 очень душно 1012.5 1010.0
В 1 10 км пыль 9/5 480 м
[Cu med, cong Ac As Cs]
+27.4 +25.6 90 +40 +40 очень душно 1013.7 1011.2 +26.5 +33.4
В 3 12 км пыль 9/1 480 м
[Cu hum Ac As Cs]
+27.2 +25.5 90 +40 +40 очень душно 1014.0 1011.5
ЮВ 1 12 км пыль 9/1 480 м
[Cu Sc Ac As Cs]
+27.1 +25.3 90 +39 +39 очень душно 1012.3 1009.8 +26.5 +33.4
ЮВ 3 14 км слаб. дождь 10/1 480 м
[Cu hum Ac As Cs]
+26.9 +25.1 90 +39 +39 очень душно 1012.5 1010.0
В 4 14 км пыль {дождь} 9/1 540 м
[Cu Sc Ac As Cs]
+28.6 +25.5 83 +42 +44 очень душно 1014.3 1011.8 +26.7 +33.4 0.0 0.0
В 6 10 км пыль 9/3 660 м
[Cu hum Ac As]
+32.0 +25.3 68 +46 +48 очень душно 1013.7 1011.2
ЮВ 5 10 км пыль 9/3 660 м
[Cu med, cong Ac As Cs]
+31.1 +24.8 69 +44 +47 очень душно 1011.7 1009.2 +26.7 +33.6
ЮВ 5 10 км осадки на расстоянии 9/4 540 м
[Cu Sc Ac As Cs]
+29.5 +25.2 78 +43 +43 очень душно 1010.5 1008.0
В 2 15 км пыль 6/1 480 м
[Cu Sc Ac As Ci sp]
+27.6 +24.8 85 +39 +39 очень душно 1012.5 1010.0 +26.7 +33.6
В 1 10 км осадки на расстоянии 8/4 480 м
[Cu Sc Ac As Ci sp]
+27.1 +25.0 88 +39 +39 очень душно 1013.3 1010.8
штиль 0 15 км пыль 9/1 480 м
[Cu Sc Ac As Ci sp]
+26.3 +24.5 90 +37 +37 очень душно 1011.8 1009.3 +26.3 +33.6
штиль 0 15 км пыль 9/4 480 м
[Cu Sc Ac As Cs]
+26.3 +24.2 88 +37 +37 очень душно 1012.0 1009.5
В 3 16 км осадки на расстоянии 9/3 480 м
[Cu Sc Ac As]
+28.2 +23.2 74 +38 +39 очень душно 1013.2 1010.7 +25.7 +32.6
В 7 20 км мгла 9/4 660 м
[Cu med, cong Ac As]
+32.0 +24.1 63 +44 +46 очень душно 1013.6 1011.1
ЮВ 5 20 км мгла 6/6 660 м
[Cu Sc]
+32.5 +24.0 61 +44 +48 очень душно 1011.5 1009.0 +25.7 +33.8
В 6 18 км мгла 4/3 660 м
[Cu med, cong Ac lent Ci sp]
+31.0 +23.8 66 +43 +43 очень душно 1010.4 1007.9
В 3 20 км мгла 1/1 480 м
[Cu med, cong Ci sp]
+27.7 +25.0 85 +40 +40 очень душно 1013.1 1010.6 +25.7 +33.9
ЮВ 2 20 км мгла 1/1 480 м
[Cu hum]
+26.6 +24.4 88 +37 +37 очень душно 1014.5 1012.0
штиль 0 20 км мгла 1/1 480 м
[Cu hum]
+26.0 +24.1 89 +36 +36 очень душно 1012.9 1010.4 +25.7 +33.9
В 4 15 км мгла 5/5 540 м
[Cu Sc Ac trans]
+28.7 +24.5 78 +41 +42 очень душно 1014.2 1011.7 +25.5 +33.9
ЮВ 8 16 км мгла 6/4 600 м
[Cu Sc Ac As Ci sp]
+32.4 +24.3 62 +45 +46 очень душно 1014.5 1012.0
ЮВ 6 16 км осадки на расстоянии 6/5 540 м
[Cu Sc Ac As Ci sp]
+31.5 +25.0 68 +45 +48 очень душно 1012.4 1009.9 +25.5 +33.8
В 6 18 км осадки на расстоянии 6/4 480 м
[Cu Sc Ac As Ci sp]
+29.4 +24.6 75 +42 +42 очень душно 1012.0 1009.5
В 2 20 км дым {ливн. дождь} 9/4 360 м
[Cu Sc Ac As Ci sp]
+27.3 +24.8 86 +39 +39 очень душно 1013.1 1010.6 +25.5 +33.8 0.1
В 2 20 км 9/1 300 м
[Cu Sc Ac As Ci sp]
+26.9 +24.8 88 +38 +38 очень душно 1014.2 1011.7
Местоположение метеостанции Аэропорт Пиарко (Тринидад и Тобаго): широта 10.62 долгота -61.34 высота над уровнем моря 15 м.
В архиве по умолчанию представлена погода в Аэропорту Пиарко за последнюю неделю. Архивные данные за месяц целиком и за предыдущие месяцы, начиная с января 2011 года, Вы можете получить, выбрав интересующий диапазон дат из раскрывающегося списка и нажав кнопку "Найти!".
*Определитесь, кто Вы:
Внимание! Время в таблицах - всемирное. Для получения местного времени необходимо прибавить поправку, которая равна -4 ч.
Некоторые строки с данными для отдельных станций могут быть выделены курсивом. Это означает, что фактические данные отсутствуют по различным причинам, а приведенные значения являются расчетными модельными данными для данного пункта наблюдений.
Смотрите также архив погоды в соседних городах и на ближайших метеорологических станциях:
Партнеры нашего сайта:      
Пояснения к столбцам:
  • Ветер - указаны скорость ветра в м/с - средняя за 10 мин, порывы в срок и между сроками (в фигурных скобках) и направление, откуда дует ветер: С - северный,
  • СВ - северо-восточный, В - восточный, ЮВ - юго-восточный, Ю - южный, ЮЗ - юго-западный, З - западный, СЗ - северо-западный.
  • Видимость - горизонтальная дальность видимости в метрах или километрах. При видимости от 1 до 10 км при отсутствии осадков обычно наблюдается дымка, при ухудшении видимости до 1 км и менее - туман. В сухую погоду видимость может ухудшаться дымом, пылью или мглою.
  • Явления - указаны атмосферные явления, наблюдавшиеся в срок или в последний час перед сроком; фигурными скобками обозначены явления, наблюдавшиеся между сроками (за 1-3 часа до срока); квадратными скобками обозначены град или гололедные отложения с указанием их диаметра в мм.
  • Облачность - указаны через наклонную черту общая и нижняя облачность в баллах и высота нижней границы облаков в метрах; квадратными скобками обозначены формы облаков: Ci - перистые, Cs - перисто-слоистые, Cc - перисто-кучевые, Ac - высококучевые, As - высокослоистые, Sc - слоисто-кучевые, Ns - слоисто-дождевые, Cu - кучевые, Cb - кучево-дождевые. Подробнее классификацию облаков см. в Атласе облаков (PDF).
  • T - Температура воздуха - температура, измеренная на высоте 2 м над землей.
  • Td - Температура точки росы - температура, при понижении до которой содержащийся в воздухе водяной пар достигнет насыщения.
  • f - Относительная влажность воздуха - влажноcть воздуха, измеренная на высоте 2 м над землей.
  • Te - Эффективная температура - температура, которую ощущает одетый по сезону человек в тени. Характеристика душности погоды. При расчете учитывается влияние влажности воздуха и скорости ветра на теплоощущения человека.
  • Tes - Эффективная температура на солнце - температура, которую ощущает человек, с поправкой на солнечный нагрев. Характеристика знойности погоды. Зависит от высоты солнца над горизонтом, облачности и скорости ветра. Ночью, в пасмурную погоду, а также при ветре 12 м/с и более поправка равна нулю.
  • P - Атмосферное давление - приведенное к уровню моря атмосферное давление.
  • Po - Атмосферное давление - измеренное на уровне метеостанции атмосферное давление.
  • Tmin - Минимальная температура - минимум температуры воздуха на высоте 2 м над землей.
  • Tmax - Максимальная температура - максимум температуры воздуха на высоте 2 м над землей.
  • R - Количество осадков - Количество выпавших осадков за период времени, мм. При наведении курсора мыши на число - период времени, за который выпало указанное количество осадков.
  • R24 - Количество осадков - Количество выпавших осадков за 24 часа, мм.
  • S - Снежный покров - Высота снежного покрова, см. При наведении курсора мыши на число - состояние снежного покрова и степень покрытия местности в баллах.